Satellite: NCUBE2
Catalog number: 28897
Epoch time:      07010.67246412
Element set:    0170
Inclination:      098.1475 deg
RA of node:       270.4194 deg
Eccentricity:    0.0016288
Arg of perigee:   245.3191 deg
Mean anomaly:     114.6321 deg
Mean motion:   14.59660328 rev/day
Decay rate:       1.94e-06 rev/day^2
Epoch rev:           05639
Checksum:              303

Satellite: NMARS
Catalog number: 29662
Epoch time:      07011.54477645
Element set:      34
Inclination:      051.6403 deg
RA of node:       192.1747 deg
Eccentricity:    0.0014297
Arg of perigee:   105.3575 deg
Mean anomaly:     254.9023 deg
Mean motion:   15.84649919 rev/day
Decay rate:     5.6624e-04 rev/day^2
Epoch rev:             330
Checksum:              299

Satellite: FCAL
Catalog number: 29664
Epoch time:      07011.56042641
Element set:      21
Inclination:      051.6339 deg
RA of node:       192.2703 deg
Eccentricity:    0.0017269
Arg of perigee:   095.2339 deg
Mean anomaly:     265.0634 deg
Mean motion:   15.82798703 rev/day
Decay rate:     2.3510e-04 rev/day^2
Epoch rev:             328
Checksum:              281

/EX





More information about the Keps mailing list